TimeCDT,TemperatureF,Dew PointF,Humidity,Sea Level PressureIn,VisibilityMPH,Wind Direction,Wind SpeedMPH,Gust SpeedMPH,PrecipitationIn,Events,Conditions,WindDirDegrees,DateUTC
12:15 AM,68.0,64.4,88,30.08,10.0,ESE,4.6,-,N/A,,Overcast,110,2013-08-18 05:15:00
12:35 AM,68.0,64.4,88,30.08,10.0,SE,5.8,-,N/A,,Overcast,130,2013-08-18 05:35:00
12:55 AM,66.2,64.4,94,30.08,10.0,SSE,5.8,-,N/A,,Mostly Cloudy,150,2013-08-18 05:55:00
1:15 AM,66.2,64.4,94,30.08,10.0,SE,3.5,-,N/A,,Overcast,140,2013-08-18 06:15:00
1:35 AM,66.2,62.6,88,30.07,10.0,Calm,Calm,-,N/A,,Mostly Cloudy,0,2013-08-18 06:35:00
1:55 AM,66.2,62.6,88,30.07,10.0,SSE,4.6,-,N/A,,Partly Cloudy,160,2013-08-18 06:55:00
2:15 AM,66.2,62.6,88,30.07,10.0,SE,3.5,-,N/A,,Mostly Cloudy,140,2013-08-18 07:15:00
2:35 AM,66.2,62.6,88,30.07,10.0,Calm,Calm,-,N/A,,Overcast,0,2013-08-18 07:35:00
2:55 AM,66.2,62.6,88,30.07,10.0,SE,3.5,-,N/A,,Overcast,130,2013-08-18 07:55:00
3:15 AM,64.4,62.6,94,30.07,10.0,Calm,Calm,-,N/A,,Overcast,0,2013-08-18 08:15:00
3:35 AM,64.4,62.6,94,30.07,9.0,SE,4.6,-,N/A,,Mostly Cloudy,140,2013-08-18 08:35:00
3:55 AM,64.4,62.6,94,30.07,8.0,SSE,3.5,-,N/A,,Mostly Cloudy,160,2013-08-18 08:55:00
4:15 AM,64.4,62.6,94,30.08,7.0,SE,3.5,-,N/A,,Overcast,130,2013-08-18 09:15:00
4:35 AM,64.4,62.6,94,30.08,7.0,SE,3.5,-,N/A,,Overcast,140,2013-08-18 09:35:00
4:55 AM,64.4,62.6,94,30.08,8.0,SE,3.5,-,N/A,,Overcast,130,2013-08-18 09:55:00
5:15 AM,66.2,62.6,88,30.09,8.0,Calm,Calm,-,N/A,,Overcast,0,2013-08-18 10:15:00
5:35 AM,64.4,62.6,94,30.09,8.0,Calm,Calm,-,N/A,,Overcast,0,2013-08-18 10:35:00
5:55 AM,64.4,62.6,94,30.09,7.0,Calm,Calm,-,N/A,,Scattered Clouds,0,2013-08-18 10:55:00
6:15 AM,64.4,62.6,94,30.10,5.0,Calm,Calm,-,N/A,,Clear,0,2013-08-18 11:15:00
6:35 AM,64.4,62.6,94,30.11,4.0,East,4.6,-,N/A,,Mostly Cloudy,100,2013-08-18 11:35:00
6:55 AM,64.4,62.6,94,30.11,5.0,SE,4.6,-,N/A,,Overcast,130,2013-08-18 11:55:00
7:15 AM,66.2,62.6,88,30.12,6.0,SE,4.6,-,N/A,,Overcast,130,2013-08-18 12:15:00
7:35 AM,66.2,62.6,88,30.14,5.0,SE,4.6,-,N/A,,Overcast,130,2013-08-18 12:35:00
7:55 AM,66.2,62.6,88,30.14,6.0,SE,5.8,-,N/A,,Overcast,140,2013-08-18 12:55:00
8:15 AM,66.2,62.6,88,30.14,7.0,ESE,5.8,-,N/A,,Overcast,120,2013-08-18 13:15:00
8:35 AM,66.2,62.6,88,30.14,8.0,SSE,3.5,-,N/A,,Overcast,150,2013-08-18 13:35:00
8:55 AM,68.0,64.4,88,30.14,9.0,Calm,Calm,-,N/A,,Overcast,0,2013-08-18 13:55:00
9:15 AM,68.0,64.4,88,30.14,9.0,Calm,Calm,-,N/A,,Overcast,0,2013-08-18 14:15:00
9:35 AM,68.0,64.4,88,30.14,10.0,Calm,Calm,-,N/A,,Overcast,0,2013-08-18 14:35:00
9:55 AM,69.8,64.4,83,30.14,10.0,South,4.6,-,N/A,,Overcast,170,2013-08-18 14:55:00
10:15 AM,71.6,64.4,78,30.14,10.0,SSE,3.5,-,N/A,,Overcast,150,2013-08-18 15:15:00
10:35 AM,71.6,64.4,78,30.15,10.0,Calm,Calm,-,N/A,,Overcast,0,2013-08-18 15:35:00
10:55 AM,75.2,64.4,69,30.15,10.0,Calm,Calm,-,N/A,,Mostly Cloudy,0,2013-08-18 15:55:00
11:15 AM,77.0,66.2,69,30.15,10.0,South,5.8,-,N/A,,Mostly Cloudy,180,2013-08-18 16:15:00
11:35 AM,77.0,64.4,65,30.14,10.0,Calm,Calm,-,N/A,,Mostly Cloudy,0,2013-08-18 16:35:00
11:55 AM,77.0,64.4,65,30.14,10.0,SSW,3.5,-,N/A,,Mostly Cloudy,200,2013-08-18 16:55:00
12:15 PM,77.0,64.4,65,30.13,10.0,ESE,3.5,-,N/A,,Mostly Cloudy,120,2013-08-18 17:15:00
12:35 PM,77.0,64.4,65,30.13,10.0,East,4.6,-,N/A,,Mostly Cloudy,80,2013-08-18 17:35:00
12:55 PM,78.8,64.4,61,30.12,10.0,SSE,3.5,-,N/A,,Partly Cloudy,150,2013-08-18 17:55:00
1:15 PM,80.6,64.4,58,30.12,10.0,SE,4.6,-,N/A,,Partly Cloudy,140,2013-08-18 18:15:00
1:35 PM,80.6,64.4,58,30.11,10.0,South,3.5,-,N/A,,Scattered Clouds,170,2013-08-18 18:35:00
1:55 PM,80.6,62.6,54,30.11,10.0,SE,5.8,-,N/A,,Mostly Cloudy,130,2013-08-18 18:55:00
2:15 PM,80.6,62.6,54,30.10,10.0,SE,5.8,-,N/A,,Mostly Cloudy,140,2013-08-18 19:15:00
2:35 PM,80.6,62.6,54,30.09,10.0,Calm,Calm,-,N/A,,Scattered Clouds,0,2013-08-18 19:35:00
2:55 PM,82.4,62.6,51,30.08,10.0,South,4.6,-,N/A,,Mostly Cloudy,180,2013-08-18 19:55:00
3:15 PM,82.4,64.4,54,30.07,10.0,NNE,4.6,-,N/A,,Mostly Cloudy,30,2013-08-18 20:15:00
3:35 PM,80.6,64.4,58,30.07,10.0,ENE,5.8,-,N/A,,Mostly Cloudy,70,2013-08-18 20:35:00
3:55 PM,82.4,64.4,54,30.07,10.0,Calm,Calm,-,N/A,,Scattered Clouds,0,2013-08-18 20:55:00
4:15 PM,82.4,62.6,51,30.07,10.0,NNE,3.5,-,N/A,,Clear,30,2013-08-18 21:15:00
4:35 PM,82.4,64.4,54,30.06,10.0,NE,4.6,-,N/A,,Partly Cloudy,40,2013-08-18 21:35:00
4:55 PM,82.4,64.4,54,30.06,10.0,ENE,3.5,-,N/A,,Mostly Cloudy,60,2013-08-18 21:55:00
5:15 PM,82.4,64.4,54,30.06,10.0,North,4.6,-,N/A,,Mostly Cloudy,10,2013-08-18 22:15:00
5:35 PM,82.4,64.4,54,30.06,10.0,North,4.6,-,N/A,,Mostly Cloudy,10,2013-08-18 22:35:00
5:55 PM,78.8,66.2,65,30.06,10.0,SE,6.9,-,N/A,,Overcast,140,2013-08-18 22:55:00
6:15 PM,77.0,68.0,74,30.06,10.0,SE,8.1,-,N/A,,Mostly Cloudy,140,2013-08-18 23:15:00
6:35 PM,77.0,66.2,69,30.06,10.0,SE,8.1,-,N/A,,Scattered Clouds,140,2013-08-18 23:35:00
6:55 PM,77.0,66.2,69,30.06,10.0,Calm,Calm,-,N/A,,Mostly Cloudy,0,2013-08-18 23:55:00
7:15 PM,75.2,68.0,78,30.07,10.0,ESE,3.5,-,N/A,,Mostly Cloudy,120,2013-08-19 00:15:00
7:35 PM,75.2,66.2,73,30.07,10.0,SSE,5.8,-,N/A,,Overcast,160,2013-08-19 00:35:00
7:55 PM,73.4,66.2,78,30.07,10.0,South,5.8,-,N/A,,Scattered Clouds,170,2013-08-19 00:55:00
8:15 PM,73.4,66.2,78,30.08,10.0,Calm,Calm,-,N/A,,Clear,0,2013-08-19 01:15:00
8:35 PM,73.4,66.2,78,30.08,10.0,Calm,Calm,-,N/A,,Clear,0,2013-08-19 01:35:00
8:55 PM,71.6,66.2,83,30.08,10.0,Calm,Calm,-,N/A,,Clear,0,2013-08-19 01:55:00
9:15 PM,69.8,66.2,88,30.09,10.0,Calm,Calm,-,N/A,,Clear,0,2013-08-19 02:15:00
9:35 PM,68.0,66.2,94,30.10,10.0,Calm,Calm,-,N/A,,Clear,0,2013-08-19 02:35:00
9:55 PM,68.0,66.2,94,30.11,10.0,Calm,Calm,-,N/A,,Scattered Clouds,0,2013-08-19 02:55:00
10:15 PM,68.0,66.2,94,30.11,10.0,Calm,Calm,-,N/A,,Overcast,0,2013-08-19 03:15:00
10:35 PM,68.0,66.2,94,30.10,10.0,Calm,Calm,-,N/A,,Mostly Cloudy,0,2013-08-19 03:35:00
10:55 PM,68.0,66.2,94,30.10,10.0,SSE,5.8,-,N/A,,Partly Cloudy,160,2013-08-19 03:55:00
11:15 PM,68.0,64.4,88,30.10,10.0,SE,4.6,-,N/A,,Clear,140,2013-08-19 04:15:00
11:35 PM,68.0,66.2,94,30.10,10.0,SE,4.6,-,N/A,,Clear,130,2013-08-19 04:35:00
11:55 PM,68.0,64.4,88,30.11,10.0,Calm,Calm,-,N/A,,Mostly Cloudy,0,2013-08-19 04:55:00